{"data":{"norad_id":43578,"intl_designator":"2018-061K","name":"IRIDIUM 159","alt_names":[],"object_type":"PAYLOAD","status":"ACTIVE","operator":null,"country":"US","launch_date":"2018-07-25","launch_site_code":"AFWTR","launch_vehicle":null,"mission":null,"orbit_class":"UNKNOWN","rcs_meters":null,"size_class":null,"mass_kg":null,"dimensions":null,"purposes":["comms"],"wikipedia_slug":null,"has_3d_model":false,"image_url":null,"decayed_at":null,"tle_current":{"epoch":"2026-05-25T04:22:58.463040Z","epoch_age_seconds":55230,"freshness":"FRESH","line1":"1 43578U 18061K   26145.18262110  .00000036  00000+0  57686-5 0  9997","line2":"2 43578  86.3967  66.3238 0002300  86.7868 273.3591 14.34217948410080","mean_motion":14.34217948,"eccentricity":0.00023,"inclination_deg":86.3967,"raan_deg":66.3238,"arg_perigee_deg":86.7868,"mean_anomaly_deg":273.3591,"bstar":5.7686e-6,"rev_number":41008,"period_min":100.40315016334,"perigee_km":776.02066095627,"apogee_km":779.31233056432,"semimajor_km":7155.8034957603,"source":"CELESTRAK","updated_at":"2026-05-25T13:38:14.813447Z"}}}